Regional Weather Roundup
Issued by NWS

Home | Current Version | Previous Version | Text Only | Print | Product List | Glossary On
Versions: 1 2 3 4 5 6 7 8 9 10 11 12 13 14 15 16 17 18 19 20 21 22 23 24 25 26 27 28
000
ASUS42 KKEY 221510
RWRKEY

FLORIDA REGIONAL WEATHER ROUNDUP FOR THE FLORIDA KEYS
NATIONAL WEATHER SERVICE KEY WEST FLORIDA
1100 AM EDT SAT JUL 22 2017

...SOUTH FLORIDA AND THE KEYS...

CITY           SKY/WX    TMP DP  RH WIND       PRES   REMARKS
FORT MYERS     MOSUNNY   89  76  65 SW7       30.10R HX 100
SW REGIONAL AP MOSUNNY   88  75  65 VRB6      30.11R HX  97
NAPLES         CLOUDY    87  77  72 S6        30.10R HX  99
MIAMI          PTSUNNY   89  76  65 VRB7      30.11R HX 100
WEST KENDALL   MOSUNNY   87  76  69 SE8       30.11R HX  97
HOMESTEAD      MOSUNNY   88  77  69 E8        30.10S HX 100
MARATHON       SUNNY     90  79  70 VRB6      30.09R HX 106
BOCA CHICA NAS CLOUDY    88  79  74 SE9       30.10R HX 103
KEY WEST INTL  MOSUNNY   88  76  67 SE10      30.10R HX  99

...INTERNATIONAL WEATHER...

CITY           SKY/WX    TMP DP  RH WIND       PRES   REMARKS
NASSAU BAHAMAS PTSUNNY   88  77  70 E8        30.12S HX 100
CANCUN MEXICO  PTSUNNY   86  79  79 NE7       30.06R HX  99
COZUMEL MEXICO PTSUNNY   88  77  70 NE9       30.03R HX 100

ADJACENT COASTAL WATERS...

STATION/POSITION TIME  SKY/WX   TEMP    WIND        PRES    WAVE
                                AIR SEA DIR/SP/G            HT/PER
                 (UTC)          (F)     (DEG/KT/KT) (MB)    (FT/S)
PULASKI SHOAL LI 1500            86     160/  8/ 10 1019.6R
SAND KEY         1450            85     160/ 12/ 14 1019.7R
LONG KEY         NOT AVBL
MOLASSES REEF    1400            84 86  110/ 10/ 12 1019.4R
FOWEY ROCKS      1400            84 85  120/  9/ 11 1020.0R
Buoy 42097       1500               87                N/A     1/ 3

$$




USA.gov is the U.S. government's official web portal to all federal, state and local government web resources and services.